Location: *
(43.9905°S, 176.4941°W)
Time: 02:05:42
(UTC+00:00)

ISS - Visible Passes

Search period start: 26 February 2020 00:00
Search period end: 07 March 2020 00:00
Orbit: 415 x 422 km, 51.6° (Epoch: 26 February)

Date Brightness Start Highest point End Pass type
(mag) Time Alt. Az. Time Alt. Az. Time Alt. Az.
26 Feb -1.8 08:11:07 10° SW 08:13:59 24° S 08:15:46 16° SE visible
26 Feb -0.7 09:47:51 10° SW 09:48:42 17° SW 09:48:42 17° SW visible
27 Feb -1.7 07:23:22 10° SW 07:26:09 22° S 07:28:55 10° ESE visible
27 Feb -2.3 09:00:14 10° SW 09:02:43 36° SSW 09:02:43 36° SSW visible
28 Feb -2.5 08:12:36 10° SW 08:15:46 33° SSE 08:16:45 28° SE visible
28 Feb -0.5 09:49:21 10° WSW 09:49:41 12° WSW 09:49:41 12° WSW visible
29 Feb -2.1 07:24:57 10° SW 07:27:57 27° SSE 07:30:48 11° ESE visible
29 Feb -2.1 09:01:38 10° WSW 09:03:44 35° WSW 09:03:44 35° WSW visible
01 Mar -3.6 08:13:57 10° SW 08:17:22 64° SSE 08:17:49 56° ESE visible
02 Mar -3.0 07:26:18 10° SW 07:29:37 44° SSE 07:31:55 17° E visible
02 Mar -1.4 09:03:15 10° WSW 09:04:51 22° W 09:04:51 22° W visible
03 Mar -3.4 08:15:23 10° WSW 08:18:44 52° NW 08:19:01 50° NNW visible
04 Mar -3.7 07:27:37 10° WSW 07:31:03 85° NW 07:33:13 21° NE visible
04 Mar -0.7 09:05:55 10° WNW 09:06:10 11° WNW 09:06:10 11° WNW visible
05 Mar -1.7 08:17:15 10° W 08:19:49 20° NW 08:20:26 19° NNW visible
06 Mar -2.3 07:29:08 10° WSW 07:32:14 32° NW 07:34:47 13° NNE visible
